Total_Precipitation_Accumulation
1.28 1.48 1.43 1.28 1.29 1.26 1.39 1.60 1.73 1.52 1.37 1.32 1.31 1.33 1.52 1.62 1.77 1.66 1.50 1.55 1.40 1.23 1.12 1.07 1.10 1.16 1.21 1.27 1.36 1.46 1.58 1.66 1.78 2.00 2.33 2.68 3.02 3.35
1.44 1.57 1.56 1.44 1.45 1.41 1.44 1.59 1.81 1.79 1.57 1.36 1.39 1.36 1.41 1.30 1.48 1.38 1.41 1.54 1.39 1.27 1.22 1.15 1.11 1.11 1.12 1.17 1.21 1.19 1.20 1.22 1.24 1.30 1.42 1.60 1.84 2.15
1.45 1.50 1.50 1.62 1.66 1.63 1.73 1.76 1.83 1.97 1.79 1.46 1.50 1.60 1.58 1.41 1.37 1.33 1.31 1.32 1.27 1.30 1.23 1.20 1.15 1.08 1.01 0.97 1.02 1.05 1.03 1.03 1.03 1.04 1.07 1.11 1.13 1.20
1.51 1.67 1.60 1.65 1.73 1.80 1.94 1.86 1.91 2.15 2.10 1.83 1.79 1.86 1.71 1.60 1.54 1.45 1.27 1.20 1.20 1.33 1.24 1.16 1.08 1.01 0.96 0.92 0.89 0.88 0.89 0.89 0.89 0.89 0.89 0.88 0.89 0.90
1.72 1.81 1.84 1.98 1.90 1.92 1.97 1.95 2.00 2.22 2.40 2.20 2.05 2.13 2.05 1.81 1.71 1.50 1.35 1.36 1.20 1.25 1.27 1.18 1.11 1.06 0.99 0.99 0.98 0.93 0.85 0.80 0.76 0.78 0.83 0.86 0.90 0.92
1.89 1.91 1.93 1.98 2.03 2.13 2.13 2.22 2.36 2.53 2.67 2.54 2.42 2.47 2.45 2.25 2.03 1.68 1.56 1.48 1.37 1.27 1.34 1.28 1.23 1.17 1.09 1.02 0.97 0.95 0.93 0.89 0.85 0.81 0.81 0.84 0.88 0.91
1.84 1.88 1.85 1.93 1.99 2.09 2.06 2.23 2.50 2.70 2.83 2.84 2.79 2.92 2.82 2.63 2.30 1.96 1.88 1.78 1.65 1.46 1.39 1.29 1.26 1.18 1.14 1.11 1.06 1.01 0.99 0.97 0.95 0.95 0.94 0.90 0.88 0.88
1.91 1.92 1.89 1.86 1.79 1.82 1.89 2.00 2.16 2.37 2.60 2.80 2.87 2.94 2.96 2.83 2.62 2.36 2.05 1.80 1.65 1.52 1.55 1.44 1.33 1.26 1.13 1.05 1.14 1.09 1.03 0.99 0.98 0.97 0.99 1.00 1.00 0.99
1.89 1.89 1.73 1.61 1.64 1.56 1.69 1.73 1.72 1.79 1.93 2.19 2.41 2.46 2.66 2.77 2.67 2.33 2.02 1.78 1.59 1.55 1.59 1.50 1.40 1.30 1.20 1.15 1.23 1.09 1.03 0.99 0.96 0.95 0.97 0.99 1.01 1.03
1.66 1.70 1.71 1.62 1.60 1.67 1.66 1.55 1.40 1.39 1.49 1.52 1.64 1.88 2.14 2.46 2.54 2.42 2.34 2.05 1.77 1.55 1.52 1.48 1.33 1.24 1.16 1.13 1.22 1.12 1.03 0.99 0.96 0.93 0.91 0.90 0.91 0.94
1.64 1.65 1.65 1.52 1.59 1.53 1.49 1.48 1.39 1.32 1.34 1.38 1.43 1.62 1.90 2.13 2.34 2.34 2.25 2.13 1.87 1.58 1.44 1.40 1.29 1.27 1.23 1.14 1.12 1.14 1.05 1.03 1.01 0.97 0.93 0.90 0.90 0.92
1.68 1.69 1.71 1.56 1.61 1.56 1.52 1.54 1.45 1.36 1.35 1.32 1.35 1.41 1.48 1.75 2.03 2.04 1.99 2.00 1.84 1.61 1.36 1.36 1.29 1.29 1.31 1.10 0.93 0.90 0.91 0.99 1.01 0.96 0.93 0.89 0.88 0.77
1.58 1.55 1.59 1.61 1.46 1.36 1.31 1.30 1.37 1.40 1.41 1.35 1.29 1.29 1.34 1.44 1.63 1.73 1.78 1.76 1.67 1.48 1.28 1.32 1.31 1.26 1.19 1.06 0.94 0.87 0.82 0.81 0.83 0.87 0.91 0.94 0.90 0.74
1.42 1.41 1.42 1.39 1.21 1.09 0.97 0.96 1.02 1.02 1.08 1.17 1.17 1.13 1.16 1.23 1.38 1.62 1.76 1.74 1.61 1.47 1.41 1.38 1.31 1.26 1.19 1.07 0.95 0.87 0.83 0.77 0.70 0.67 0.70 0.92 0.97 0.96
1.19 1.39 1.40 1.26 1.15 1.08 1.03 0.95 0.86 0.80 0.88 0.97 0.93 0.94 0.99 1.09 1.25 1.54 1.77 1.93 1.82 1.56 1.42 1.37 1.33 1.28 1.22 1.03 0.85 0.76 0.76 0.73 0.67 0.65 0.66 0.74 0.81 0.87
1.21 1.36 1.42 1.39 1.31 1.22 1.12 0.96 0.80 0.78 0.80 0.86 0.90 0.92 1.01 1.11 1.23 1.32 1.56 1.76 1.84 1.67 1.43 1.33 1.27 1.28 1.20 1.04 0.91 0.77 0.69 0.68 0.66 0.69 0.73 0.73 0.76 0.83
1.33 1.44 1.56 1.58 1.54 1.42 1.26 1.10 0.97 0.92 0.88 0.88 0.97 0.99 1.02 1.05 1.07 1.12 1.29 1.45 1.47 1.38 1.30 1.29 1.30 1.31 1.31 1.23 1.02 0.80 0.71 0.63 0.61 0.70 0.81 0.81 0.76 0.77
1.15 1.33 1.60 1.67 1.66 1.63 1.50 1.31 1.16 1.07 1.01 1.00 1.02 1.03 1.03 1.07 1.10 1.15 1.23 1.35 1.36 1.26 1.22 1.19 1.29 1.41 1.38 1.28 1.04 0.85 0.73 0.67 0.65 0.74 0.80 0.80 0.75 0.75
0.86 1.06 1.36 1.57 1.64 1.65 1.56 1.38 1.20 1.15 1.17 1.13 1.09 1.07 1.08 1.10 1.18 1.21 1.25 1.32 1.37 1.32 1.24 1.27 1.34 1.41 1.36 1.13 0.93 0.81 0.80 0.77 0.81 0.82 0.81 0.80 0.75 0.70
0.73 0.89 1.13 1.38 1.49 1.55 1.53 1.47 1.35 1.30 1.28 1.24 1.20 1.18 1.17 1.18 1.17 1.19 1.23 1.26 1.30 1.37 1.32 1.29 1.30 1.28 1.24 1.17 1.07 0.93 0.86 0.91 0.96 0.93 0.86 0.88 0.87 0.88
0.89 0.92 1.06 1.27 1.44 1.55 1.59 1.57 1.50 1.44 1.41 1.41 1.37 1.33 1.31 1.34 1.29 1.21 1.24 1.32 1.35 1.39 1.30 1.10 1.08 1.25 1.41 1.55 1.40 1.08 0.93 0.93 1.02 1.07 1.02 1.06 1.05 1.03
1.10 1.09 1.13 1.27 1.44 1.57 1.61 1.57 1.60 1.56 1.54 1.52 1.48 1.43 1.39 1.39 1.38 1.36 1.37 1.40 1.33 1.29 1.28 1.22 1.30 1.45 1.49 1.46 1.29 1.15 1.07 1.02 1.09 1.13 1.09 1.04 1.01 0.94
1.30 1.24 1.25 1.33 1.42 1.52 1.53 1.49 1.50 1.55 1.54 1.51 1.47 1.45 1.40 1.37 1.37 1.40 1.39 1.41 1.39 1.36 1.42 1.48 1.49 1.47 1.42 1.40 1.34 1.29 1.24 1.19 1.17 1.14 1.03 0.97 0.85 0.76